{"data":{"norad_id":68375,"epoch":"2026-09-19T07:41:48.963840Z","epoch_age_seconds":174067,"freshness":"STALE","line1":"1 68375U 26061R   26262.32070560  .00003359  00000+0  16192-3 0  9996","line2":"2 68375  82.2898 276.2946 0002632  71.2885 288.8633 15.18409608 27849","mean_motion":15.18409608,"eccentricity":0.0002632,"inclination_deg":82.2898,"raan_deg":276.2946,"arg_perigee_deg":71.2885,"mean_anomaly_deg":288.8633,"bstar":0.00016192,"rev_number":2784,"period_min":94.836070083666,"perigee_km":508.83352879849,"apogee_km":512.45978451535,"semimajor_km":6888.7836566569,"source":"CELESTRAK","updated_at":"2026-09-20T09:00:24.166047Z"}}